Location: Huntsville
(41.2590°N, 111.7678°W)
Time: 19:59:55
(UTC+00:00)

Explorer 7 - Pass Details

Date: 22 June 2021
Orbit: 484 x 676 km, 50.3° (Epoch: 30 July)

Event Time Altitude Azimuth Distance (km) Brightness Sun altitude
Rises 04:42:37 0° 261° (W) 3,020 11.0 -14.7°
Reaches altitude 10° 04:45:06 10° 268° (W) 2,108 10.3 -15.0°
Maximum altitude 04:49:44 41° 339° (NNW) 968 8.6 -15.5°
Drops below altitude 10° 04:54:18 10° 50° (NE) 2,073 9.8 -16.0°
Sets 04:56:44 0° 58° (ENE) 2,963 10.5 -16.3°
